Time,TemperatureF,DewpointF,PressureIn,WindDirection,WindDirectionDegrees,WindSpeedMPH,WindSpeedGustMPH,Humidity,HourlyPrecipIn,Conditions,Clouds,dailyrainin,SoftwareType,DateUTC
2013-06-03 00:13:00,61.4,42.0,25.08,SE,128,12.0,24.0,49,0.00,,,0.00,weatherlink.com 1.10,2013-06-03 06:13:00,
2013-06-03 00:28:00,60.7,42.0,25.08,SE,127,18.0,23.0,50,0.00,,,0.00,weatherlink.com 1.10,2013-06-03 06:28:00,
2013-06-03 00:43:00,60.1,42.0,25.07,SE,143,11.0,18.0,51,0.00,,,0.00,weatherlink.com 1.10,2013-06-03 06:43:00,
2013-06-03 00:58:00,59.6,42.0,25.07,SE,129,13.0,18.0,53,0.00,,,0.00,weatherlink.com 1.10,2013-06-03 06:58:00,
2013-06-03 01:13:00,59.1,42.0,25.07,ESE,117,8.0,19.0,54,0.00,,,0.00,weatherlink.com 1.10,2013-06-03 07:13:00,
2013-06-03 01:28:00,58.6,42.0,25.07,ESE,110,16.0,16.0,55,0.00,,,0.00,weatherlink.com 1.10,2013-06-03 07:28:00,
2013-06-03 01:43:00,57.9,42.0,25.07,NE,49,1.0,8.0,56,0.00,,,0.00,weatherlink.com 1.10,2013-06-03 07:43:00,
2013-06-03 01:58:00,56.8,42.0,25.07,ENE,67,2.0,4.0,58,0.00,,,0.00,weatherlink.com 1.10,2013-06-03 07:58:00,
2013-06-03 02:13:00,55.3,42.0,25.07,ESE,113,0.0,4.0,62,0.00,,,0.00,weatherlink.com 1.10,2013-06-03 08:13:00,
2013-06-03 02:28:00,54.2,42.0,25.07,NE,35,1.0,2.0,64,0.00,,,0.00,weatherlink.com 1.10,2013-06-03 08:28:00,
2013-06-03 02:44:00,54.4,42.0,25.05,SE,134,7.0,11.0,64,0.00,,,0.00,weatherlink.com 1.10,2013-06-03 08:44:00,
2013-06-03 02:59:00,53.7,42.0,25.06,NNE,20,4.0,7.0,66,0.00,,,0.00,weatherlink.com 1.10,2013-06-03 08:59:00,
2013-06-03 03:14:00,53.5,43.0,25.05,ESE,120,8.0,14.0,67,0.00,,,0.00,weatherlink.com 1.10,2013-06-03 09:14:00,
2013-06-03 03:29:00,53.5,43.0,25.05,ESE,118,2.0,5.0,67,0.00,,,0.00,weatherlink.com 1.10,2013-06-03 09:29:00,
2013-06-03 03:44:00,53.2,43.0,25.05,North,360,2.0,10.0,68,0.00,,,0.00,weatherlink.com 1.10,2013-06-03 09:44:00,
2013-06-03 03:59:00,52.4,43.0,25.04,East,86,0.0,11.0,70,0.00,,,0.00,weatherlink.com 1.10,2013-06-03 09:59:00,
2013-06-03 04:14:00,51.9,43.0,25.04,East,91,1.0,6.0,71,0.00,,,0.00,weatherlink.com 1.10,2013-06-03 10:14:00,
2013-06-03 04:29:00,50.4,42.0,25.04,NNW,338,1.0,2.0,73,0.00,,,0.00,weatherlink.com 1.10,2013-06-03 10:29:00,
2013-06-03 04:44:00,49.9,43.0,25.03,NE,52,1.0,2.0,76,0.00,,,0.00,weatherlink.com 1.10,2013-06-03 10:44:00,
2013-06-03 04:59:00,49.7,42.0,25.03,SE,125,0.0,2.0,76,0.00,,,0.00,weatherlink.com 1.10,2013-06-03 10:59:00,
2013-06-03 05:14:00,50.2,43.0,25.03,SW,222,4.0,8.0,75,0.00,,,0.00,weatherlink.com 1.10,2013-06-03 11:14:00,
2013-06-03 05:29:00,50.1,42.0,25.03,SSE,158,1.0,4.0,75,0.00,,,0.00,weatherlink.com 1.10,2013-06-03 11:29:00,
2013-06-03 05:44:00,50.0,43.0,25.03,SE,136,2.0,9.0,76,0.00,,,0.00,weatherlink.com 1.10,2013-06-03 11:44:00,
2013-06-03 05:59:00,50.0,43.0,25.03,SW,224,4.0,7.0,76,0.00,,,0.00,weatherlink.com 1.10,2013-06-03 11:59:00,
2013-06-03 06:14:00,50.9,43.0,25.03,SW,231,3.0,4.0,75,0.00,,,0.00,weatherlink.com 1.10,2013-06-03 12:14:00,
2013-06-03 06:29:00,52.5,44.0,25.02,SSW,212,3.0,5.0,72,0.00,,,0.00,weatherlink.com 1.10,2013-06-03 12:29:00,
2013-06-03 06:44:00,53.3,44.0,25.02,SSE,159,5.0,10.0,71,0.00,,,0.00,weatherlink.com 1.10,2013-06-03 12:44:00,
2013-06-03 06:59:00,54.5,44.0,25.01,SSW,210,5.0,10.0,69,0.00,,,0.00,weatherlink.com 1.10,2013-06-03 12:59:00,
2013-06-03 07:14:00,55.9,45.0,25.02,SW,225,7.0,10.0,66,0.00,,,0.00,weatherlink.com 1.10,2013-06-03 13:14:00,
2013-06-03 07:29:00,57.4,45.0,25.02,SW,233,1.0,9.0,64,0.00,,,0.00,weatherlink.com 1.10,2013-06-03 13:29:00,
2013-06-03 07:44:00,59.8,45.0,25.01,SW,223,5.0,8.0,59,0.00,,,0.00,weatherlink.com 1.10,2013-06-03 13:44:00,
2013-06-03 07:59:00,62.2,46.0,25.01,WSW,252,5.0,7.0,55,0.00,,,0.00,weatherlink.com 1.10,2013-06-03 13:59:00,
2013-06-03 08:14:00,64.4,46.0,25.01,SW,215,5.0,10.0,51,0.00,,,0.00,weatherlink.com 1.10,2013-06-03 14:14:00,
2013-06-03 08:29:00,68.2,48.0,25.01,NW,316,2.0,11.0,49,0.00,,,0.00,weatherlink.com 1.10,2013-06-03 14:29:00,
2013-06-03 08:44:00,70.4,47.0,25.01,NW,313,4.0,7.0,44,0.00,,,0.00,weatherlink.com 1.10,2013-06-03 14:44:00,
2013-06-03 08:59:00,72.5,48.0,25.00,North,356,2.0,9.0,42,0.00,,,0.00,weatherlink.com 1.10,2013-06-03 14:59:00,
2013-06-03 09:14:00,73.3,47.0,25.01,NW,309,2.0,10.0,39,0.00,,,0.00,weatherlink.com 1.10,2013-06-03 15:14:00,
2013-06-03 09:30:00,76.2,44.0,25.01,WNW,287,7.0,10.0,32,0.00,,,0.00,weatherlink.com 1.10,2013-06-03 15:30:00,
2013-06-03 09:45:00,78.5,44.0,25.01,WNW,297,4.0,12.0,29,0.00,,,0.00,weatherlink.com 1.10,2013-06-03 15:45:00,
2013-06-03 10:00:00,80.9,39.0,25.01,WSW,256,3.0,13.0,22,0.00,,,0.00,weatherlink.com 1.10,2013-06-03 16:00:00,
2013-06-03 10:15:00,84.7,34.0,25.01,WNW,295,10.0,18.0,16,0.00,,,0.00,weatherlink.com 1.10,2013-06-03 16:15:00,
2013-06-03 10:30:00,84.9,32.0,25.01,NW,309,16.0,20.0,15,0.00,,,0.00,weatherlink.com 1.10,2013-06-03 16:30:00,
2013-06-03 10:45:00,85.3,33.0,25.02,WNW,301,6.0,22.0,15,0.00,,,0.00,weatherlink.com 1.10,2013-06-03 16:45:00,
2013-06-03 11:00:00,84.3,30.0,25.02,NW,307,6.0,23.0,14,0.00,,,0.00,weatherlink.com 1.10,2013-06-03 17:00:00,
2013-06-03 11:15:00,85.1,31.0,25.02,NNW,328,11.0,17.0,14,0.00,,,0.00,weatherlink.com 1.10,2013-06-03 17:15:00,
2013-06-03 11:30:00,85.7,33.0,25.02,NNW,328,12.0,18.0,15,0.00,,,0.00,weatherlink.com 1.10,2013-06-03 17:30:00,
2013-06-03 11:45:00,86.1,35.0,25.02,NW,318,11.0,21.0,16,0.00,,,0.00,weatherlink.com 1.10,2013-06-03 17:45:00,
2013-06-03 12:00:00,86.2,33.0,25.02,NW,312,13.0,23.0,15,0.00,,,0.00,weatherlink.com 1.10,2013-06-03 18:00:00,
2013-06-03 12:15:00,86.6,32.0,25.02,NW,320,10.0,21.0,14,0.00,,,0.00,weatherlink.com 1.10,2013-06-03 18:15:00,
2013-06-03 12:30:00,87.6,31.0,25.01,West,281,9.0,18.0,13,0.00,,,0.00,weatherlink.com 1.10,2013-06-03 18:30:00,
2013-06-03 12:45:00,87.6,31.0,25.01,NW,312,13.0,21.0,13,0.00,,,0.00,weatherlink.com 1.10,2013-06-03 18:45:00,
2013-06-03 13:00:00,87.8,33.0,25.01,West,274,7.0,19.0,14,0.00,,,0.00,weatherlink.com 1.10,2013-06-03 19:00:00,
2013-06-03 13:15:00,87.0,32.0,25.00,West,274,13.0,23.0,14,0.00,,,0.00,weatherlink.com 1.10,2013-06-03 19:15:00,
2013-06-03 13:30:00,87.3,33.0,25.00,West,266,4.0,19.0,14,0.00,,,0.00,weatherlink.com 1.10,2013-06-03 19:30:00,
2013-06-03 13:45:00,88.5,32.0,25.00,WSW,255,12.0,18.0,13,0.00,,,0.00,weatherlink.com 1.10,2013-06-03 19:45:00,
2013-06-03 14:00:00,89.3,32.0,25.00,NNW,329,15.0,19.0,13,0.00,,,0.00,weatherlink.com 1.10,2013-06-03 20:00:00,
2013-06-03 14:15:00,87.0,34.0,25.00,NW,326,12.0,17.0,15,0.00,,,0.00,weatherlink.com 1.10,2013-06-03 20:15:00,
2013-06-03 14:30:00,87.5,34.0,25.00,NW,314,12.0,16.0,15,0.00,,,0.00,weatherlink.com 1.10,2013-06-03 20:30:00,
2013-06-03 14:45:00,86.5,35.0,25.00,NNE,32,4.0,13.0,16,0.00,,,0.00,weatherlink.com 1.10,2013-06-03 20:45:00,
2013-06-03 15:00:00,87.6,33.0,25.00,North,6,7.0,11.0,14,0.00,,,0.00,weatherlink.com 1.10,2013-06-03 21:00:00,
2013-06-03 15:15:00,85.3,40.0,25.00,NNE,19,10.0,14.0,20,0.00,,,0.00,weatherlink.com 1.10,2013-06-03 21:15:00,
2013-06-03 15:30:00,82.2,33.0,25.01,NNE,26,8.0,15.0,17,0.00,,,0.00,weatherlink.com 1.10,2013-06-03 21:30:00,
2013-06-03 15:45:00,82.8,32.0,25.00,NE,49,8.0,13.0,16,0.00,,,0.00,weatherlink.com 1.10,2013-06-03 21:45:00,
2013-06-03 16:00:00,82.1,33.0,25.00,North,5,6.0,12.0,17,0.00,,,0.00,weatherlink.com 1.10,2013-06-03 22:00:00,
2013-06-03 16:15:00,81.4,35.0,25.01,NNE,20,7.0,10.0,19,0.00,,,0.00,weatherlink.com 1.10,2013-06-03 22:15:00,
2013-06-03 16:30:00,81.3,29.0,25.00,NNW,340,8.0,14.0,15,0.00,,,0.00,weatherlink.com 1.10,2013-06-03 22:30:00,
2013-06-03 16:45:00,79.9,33.0,25.01,North,7,1.0,6.0,18,0.00,,,0.00,weatherlink.com 1.10,2013-06-03 22:45:00,
2013-06-03 17:00:00,76.6,45.0,25.02,SE,127,2.0,2.0,33,0.00,,,0.00,weatherlink.com 1.10,2013-06-03 23:00:00,
2013-06-03 17:15:00,75.4,36.0,25.02,NNW,345,5.0,7.0,24,0.00,,,0.00,weatherlink.com 1.10,2013-06-03 23:15:00,
2013-06-03 17:30:00,74.6,37.0,25.02,NNE,33,8.0,9.0,26,0.00,,,0.00,weatherlink.com 1.10,2013-06-03 23:30:00,
2013-06-03 17:45:00,75.5,32.0,25.02,NNE,27,10.0,14.0,20,0.00,,,0.00,weatherlink.com 1.10,2013-06-03 23:45:00,
2013-06-03 18:00:00,74.8,30.0,25.02,NNW,338,14.0,18.0,19,0.00,,,0.00,weatherlink.com 1.10,2013-06-04 00:00:00,
2013-06-03 18:15:00,74.3,31.0,25.02,NE,37,11.0,15.0,20,0.00,,,0.00,weatherlink.com 1.10,2013-06-04 00:15:00,
2013-06-03 18:30:00,72.8,43.0,25.02,NE,44,5.0,11.0,34,0.00,,,0.00,weatherlink.com 1.10,2013-06-04 00:30:00,
2013-06-03 18:45:00,72.6,40.0,25.04,East,80,1.0,3.0,31,0.00,,,0.00,weatherlink.com 1.10,2013-06-04 00:45:00,
2013-06-03 19:00:00,71.4,44.0,25.09,NNE,16,3.0,4.0,37,0.01,,,0.01,weatherlink.com 1.10,2013-06-04 01:00:00,
2013-06-03 19:15:00,67.7,52.0,25.07,NE,34,3.0,5.0,57,0.01,,,0.01,weatherlink.com 1.10,2013-06-04 01:15:00,
2013-06-03 19:30:00,67.5,52.0,25.06,NE,39,3.0,9.0,59,0.01,,,0.01,weatherlink.com 1.10,2013-06-04 01:30:00,
2013-06-03 19:45:00,68.4,48.0,25.06,NE,34,7.0,14.0,48,0.01,,,0.01,weatherlink.com 1.10,2013-06-04 01:45:00,
2013-06-03 20:00:00,68.0,48.0,25.06,NE,46,8.0,13.0,49,0.00,,,0.01,weatherlink.com 1.10,2013-06-04 02:00:00,
2013-06-03 20:15:00,67.7,45.0,25.08,NE,39,3.0,7.0,45,0.00,,,0.01,weatherlink.com 1.10,2013-06-04 02:15:00,
2013-06-03 20:30:00,65.9,47.0,25.07,NE,45,0.0,3.0,51,0.00,,,0.01,weatherlink.com 1.10,2013-06-04 02:30:00,
2013-06-03 20:46:00,65.1,47.0,25.09,NNW,336,4.0,5.0,53,0.00,,,0.01,weatherlink.com 1.10,2013-06-04 02:46:00,
2013-06-03 21:01:00,64.1,48.0,25.09,NNW,341,6.0,11.0,56,0.00,,,0.01,weatherlink.com 1.10,2013-06-04 03:01:00,
2013-06-03 21:16:00,63.1,48.0,25.12,NE,40,10.0,11.0,58,0.00,,,0.01,weatherlink.com 1.10,2013-06-04 03:16:00,
2013-06-03 21:31:00,61.4,48.0,25.13,NE,37,3.0,6.0,62,0.00,,,0.01,weatherlink.com 1.10,2013-06-04 03:31:00,
2013-06-03 21:46:00,59.9,48.0,25.14,NNE,31,3.0,4.0,65,0.00,,,0.01,weatherlink.com 1.10,2013-06-04 03:46:00,
2013-06-03 22:01:00,59.2,47.0,25.15,NNE,30,1.0,4.0,65,0.00,,,0.01,weatherlink.com 1.10,2013-06-04 04:01:00,
2013-06-03 22:16:00,58.3,47.0,25.15,North,4,0.0,1.0,67,0.00,,,0.01,weatherlink.com 1.10,2013-06-04 04:16:00,
2013-06-03 22:46:00,58.0,47.0,25.15,North,353,1.0,6.0,67,0.00,,,0.01,weatherlink.com 1.10,2013-06-04 04:46:00,
2013-06-03 23:01:00,57.1,47.0,25.16,NNW,341,1.0,3.0,69,0.00,,,0.01,weatherlink.com 1.10,2013-06-04 05:01:00,
2013-06-03 23:31:00,56.1,48.0,25.17,NNW,328,5.0,7.0,74,0.00,,,0.00,weatherlink.com 1.10,2013-06-04 05:31:00,
2013-06-03 23:46:00,55.9,48.0,25.17,NNW,343,3.0,6.0,74,0.00,,,0.00,weatherlink.com 1.10,2013-06-04 05:46:00,